Regional Weather Roundup
Issued by NWS Sterling, VA

Home | Current Version | Previous Version | Text Only | Print | Product List | Glossary Off
Versions: 1 2 3 4 5 6 7 8 9 10 11 12 13 14 15 16 17 18 19 20 21 22 23 24 25 26 27 28 29 30 31 32 33 34 35 36 37 38 39 40 41 42 43 44 45 46 47 48 49 50

000
ASUS41 KLWX 191310
RWRLWX

REGIONAL WEATHER ROUNDUP
NATIONAL WEATHER SERVICE BALTIMORE MD/WASHINGTON DC
800 AM EST THU JAN 19 2017

Note: "FAIR" indicates few or no clouds below 12,000 feet
with no significant weather and/or obstructions to visibility.
 TC=TEMPERATURE CELSIUS

 * =Non NWS site. Station does not report precipitation (e.g. rain,
    snow, etc.), thunder, or fog.

DCZ001-MDZ009-015-VAZ040>042-051-053>054-191400-
WASHINGTON METRO

CITY           SKY/WX    TMP DP  RH WIND       PRES   REMARKS
WASHINGTON NAT CLOUDY    46  37  71 N7        30.11R
DULLES         CLOUDY    44  34  67 N3        30.10R
ANDREWS AFB    CLOUDY    44  35  72 NW3       30.09S
FT BELVOIR     CLOUDY    41  36  81 CALM      30.10S
QUANTICO       MOCLDY    36  36 100 NW7       30.12R
COLLEGE PARK*  CLOUDY    45  34  65 NW5       30.10S
LEESBURG*      CLOUDY    45  39  81 CALM      30.10S
GAITHERSBURG*  CLOUDY    43  34  70 NW5       30.13S

$$

MDZ006>007-011-014-191400-
BALTIMORE METRO

CITY           SKY/WX    TMP DP  RH WIND       PRES   REMARKS
BWI AIRPORT    CLOUDY    44  37  76 W6        30.09R
MD SCIENCE CTR   N/A     47  34  60 MISG      30.10R
MARTIN STATE   PTCLDY    43  37  81 CALM      30.10R
ANNAPOLIS      CLOUDY    43  37  79 NW3       30.09R
FORT MEADE*    CLOUDY    43  36  75 CALM      30.13R

$$

MDZ012-015-019>023-191400-
MARYLAND EASTERN SHORE

CITY           SKY/WX    TMP DP  RH WIND       PRES   REMARKS
OCEAN CITY     CLOUDY    43  42  97 NW3       30.08R
SALISBURY      CLOUDY    45  38  76 NW5       30.08R
BAY BRIDGE AP* CLOUDY    43  37  81 CALM      30.09S
CAMBRIDGE*     CLOUDY    43  36  75 NW3       30.09R
EASTON*        CLOUDY    45  37  76 N5        30.13R

$$

MDZ017>025-191400-
SOUTHERN MARYLAND

CITY           SKY/WX    TMP DP  RH WIND       PRES   REMARKS
PATUXENT RIVER CLOUDY    39  36  89 NW5       30.10R
ST INIGOES     PTCLDY    38  34  85 CALM      30.09R
LEONARDTOWN*   CLOUDY    36  34  93 CALM      30.12R

$$

MDZ003>005-191400-
NORTH CENTRAL MARYLAND

CITY           SKY/WX    TMP DP  RH WIND       PRES   REMARKS
FREDERICK*     CLOUDY    43  37  81 W3        30.12S
HAGERSTOWN APT CLOUDY    42  34  73 NW5       30.08S
WESTMINSTER*   NOT AVBL

$$

MDZ501>502-191400-
WESTERN MARYLAND

CITY           SKY/WX    TMP DP  RH WIND       PRES   REMARKS
OAKLAND*       FOG       32  32 100 W6        30.03R VSB<1/4
CUMBERLAND*    CLOUDY    43  36  75 CALM      30.13R

$$

VAZ025>031-191400-
SHENANDOAH VALLEY

CITY           SKY/WX    TMP DP  RH WIND       PRES   REMARKS
WINCHESTER*    CLOUDY    39  34  81 CALM      30.08S
FRONT ROYAL*   CLOUDY    34  32  93 CALM      30.07F
LURAY*         CLOUDY    32  32 100 W3        30.08F
NEW MARKET*    CLOUDY    30  28  94 SW3       30.08S
STAUNTON*      CLOUDY    28  27  97 CALM      30.10S
WAYNESBORO*    CLOUDY    33  32  97 CALM      30.07S

$$

WVZ021-048>050-054>055-191400-
EASTERN WEST VIRGINIA PANHANDLE

CITY           SKY/WX    TMP DP  RH WIND       PRES   REMARKS
MARTINSBURG    CLOUDY    44  35  70 N3        30.09R
PETERSBURG*    CLOUDY    31  31  96 CALM      30.11R FOG

$$

VAZ036>039-050-191400-
CENTRAL FOOTHILLS

CITY           SKY/WX    TMP DP  RH WIND       PRES   REMARKS
CHARLOTTESVILL MOCLDY    32  31  96 CALM      30.08S
CULPEPER*      CLOUDY    30  30  99 CALM      30.11S
ORANGE*          N/A     32  32 100 CALM      30.11S
GORDONSVILLE*  CLOUDY    31  31 100 CALM      30.09F
WARRENTON*     CLOUDY    31  28  89 CALM      30.09S

$$

VAZ055>057-191400-
NORTH AND CENTRAL PIEDMONT

CITY           SKY/WX    TMP DP  RH WIND       PRES   REMARKS
FREDERICKSBRG* PTCLDY    33  33 100 CALM      30.10S
STAFFORD*      CLOUDY    30  30 100 CALM      30.14F

$$

NCZ024-NYZ072-PAZ021-071-VAZ022-071-191400-
OTHER REGIONAL OBSERVATIONS

CITY           SKY/WX    TMP DP  RH WIND       PRES   REMARKS
NEW YORK CITY  CLEAR     41  36  82 VRB3      30.06R
PHILADELPHIA   MOCLDY    44  36  73 W8        30.09R
PITTSBURGH     DRIZZLE   38  35  89 W8        30.09R
ROANOKE        CLOUDY    37  34  89 N7        30.11R
RICHMOND       CLOUDY    38  35  89 CALM      30.11R
RALEIGH        PTCLDY    37  35  92 CALM      30.11R

$$

ANZ530>537-191400-
MARINE OBSERVATIONS

STATION/POSITION TIME  TEMP    WIND        PRES
                       AIR SEA DIR/SP/G
                 (UTC) (F)     (DEG/KT/KT) (MB)
THOMAS PT LIGHT  1200   44 39  290/  4/  4   N/A
BALT KEY BRIDGE  1248   44     300/  5/  5 1019.0R
COVE POINT       1248   42     330/  5/  6 1019.8R
LEWISETTA        1248   42 43  310/  4/  5 1018.9R
SOLOMONS ISLAND  1248   40 41  320/  3/  4   N/A
PINEY POINT      1236          320/  5/  6   N/A

$$




USA.gov is the U.S. government's official web portal to all federal, state and local government web resources and services.